,�O�C���x,�����t���O,�O�C���x,�����t���O,�󒲎����x,�����t���O,�󒲎����x,�����t���O,��󒲎����x,�����t���O,����,�����t���O
2004/2/1 0:00,7.7,0,67,0,18.7,0,62.8,0,,2,10.9,0
2004/2/1 0:15,7.8,0,68,0,18.7,0,62,0,,2,11,0
2004/2/1 0:30,7.8,0,67,0,18.7,0,62,0,,2,11,0
2004/2/1 0:45,7.5,0,68,0,18.6,0,61.7,0,,2,11.1,0
2004/2/1 1:00,7.6,0,67,0,18.6,0,61.9,0,,2,11.1,0
2004/2/1 1:15,7.4,0,68,0,18.6,0,61.4,0,,2,11.2,0
2004/2/1 1:30,7.3,0,69,0,18.7,0,64,0,,2,11.3,0
2004/2/1 1:45,7.3,0,68,0,18.8,0,68.2,0,,2,11.3,0
2004/2/1 2:00,7.2,0,67,0,18.7,0,65.9,0,,2,11.4,0
2004/2/1 2:15,7.2,0,66,0,18.6,0,64.5,0,,2,11.4,0
2004/2/1 2:30,7.2,0,66,0,18.6,0,63.6,0,,2,11.5,0
2004/2/1 2:45,7.3,0,64,0,18.5,0,62.7,0,,2,11.6,0
2004/2/1 3:00,7.3,0,62,0,18.5,0,62,0,,2,11.6,0
2004/2/1 3:15,7.2,0,61,0,18.4,0,61.4,0,,2,11.7,0
2004/2/1 3:30,7,0,61,0,18.4,0,60.8,0,,2,11.7,0
2004/2/1 3:45,7.2,0,61,0,18.4,0,60.4,0,,2,11.8,0
2004/2/1 4:00,7.2,0,61,0,18.3,0,59.8,0,,2,11.8,0
2004/2/1 4:15,7,0,62,0,18.3,0,59.4,0,,2,11.9,0
2004/2/1 4:30,7.1,0,62,0,18.2,0,59.2,0,,2,11.9,0
2004/2/1 4:45,7.2,0,61,0,18.2,0,58.8,0,,2,12,0
2004/2/1 5:00,7.3,0,61,0,18.2,0,58.4,0,,2,12,0
2004/2/1 5:15,7.2,0,61,0,18.2,0,58,0,,2,12.1,0
2004/2/1 5:30,7.1,0,63,0,18.2,0,57.6,0,,2,12.1,0
2004/2/1 5:45,7.2,0,62,0,18.1,0,57.7,0,,2,12.2,0
2004/2/1 6:00,7.1,0,63,0,18.1,0,57.4,0,,2,12.2,0
2004/2/1 6:15,6.9,0,64,0,18.1,0,57.1,0,,2,12.2,0
2004/2/1 6:30,7,0,62,0,18.1,0,57.1,0,,2,12.3,0
2004/2/1 6:45,7,0,62,0,18.1,0,57,0,,2,12.3,0
2004/2/1 7:00,7.3,0,61,0,18.1,0,56.6,0,,2,12.4,0
2004/2/1 7:15,6.9,0,62,0,18.1,0,57.8,0,,2,12.2,0
2004/2/1 7:30,7.1,0,61,0,18.1,0,58.6,0,,2,12.3,0
2004/2/1 7:45,7.2,0,60,0,18.2,0,58.8,0,,2,12.3,0
2004/2/1 8:00,7.2,0,61,0,18.2,0,58.9,0,,2,12.3,0
2004/2/1 8:15,7.5,0,59,0,18.2,0,59.8,0,,2,12.3,0
2004/2/1 8:30,7.8,0,59,0,18.4,0,59.7,0,,2,10.9,0
2004/2/1 8:45,8.1,0,58,0,18.7,0,61.4,0,,2,10.9,0
2004/2/1 9:00,8.5,0,57,0,18.9,0,61.3,0,,2,10.9,0
2004/2/1 9:15,9,0,55,0,19,0,60.6,0,,2,11,0
2004/2/1 9:30,9.6,0,53,0,18.9,0,60.1,0,,2,11,0
2004/2/1 9:45,10.3,0,48,0,18.9,0,60.2,0,,2,11.1,0
2004/2/1 10:00,10.5,0,49,0,19.1,0,59.1,0,,2,10.3,0
2004/2/1 10:15,10.7,0,48,0,19.1,0,58.8,0,,2,10.1,0
2004/2/1 10:30,11.2,0,48,0,19.2,0,59.2,0,,2,10.1,0
2004/2/1 10:45,11.3,0,48,0,19.2,0,59.4,0,,2,10.2,0
2004/2/1 11:00,11.6,0,48,0,19.2,0,59.2,0,,2,10.2,0
2004/2/1 11:15,11.7,0,48,0,19.2,0,58.9,0,,2,10.3,0
2004/2/1 11:30,11.7,0,51,0,19.1,0,58.4,0,,2,10.4,0
2004/2/1 11:45,11.1,0,50,0,18.9,0,58.9,0,,2,10.5,0
2004/2/1 12:00,11,0,49,0,18.6,0,54,0,,2,10.5,0
2004/2/1 12:15,11.3,0,50,0,19,0,55.7,0,,2,10.6,0
2004/2/1 12:30,11.6,0,55,0,19.1,0,56.9,0,,2,10.6,0
2004/2/1 12:45,12,0,54,0,19.2,0,57.6,0,,2,10.7,0
2004/2/1 13:00,11.8,0,55,0,19.4,0,57.8,0,,2,10.7,0
2004/2/1 13:15,11.7,0,57,0,19.3,0,57.9,0,,2,10.9,0
2004/2/1 13:30,11.7,0,57,0,19.3,0,60.2,0,,2,10.9,0
2004/2/1 13:45,12,0,56,0,19.4,0,60.7,0,,2,11,0
2004/2/1 14:00,12,0,58,0,19.1,0,60.8,0,,2,11,0
2004/2/1 14:15,12,0,62,0,19,0,60.1,0,,2,11.1,0
2004/2/1 14:30,12,0,62,0,19,0,59.8,0,,2,11.3,0
2004/2/1 14:45,12.1,0,61,0,18.9,0,57.9,0,,2,11.3,0
2004/2/1 15:00,12,0,58,0,18.5,0,52.6,0,,2,11.4,0
2004/2/1 15:15,12,0,56,0,18.4,0,49,0,,2,11.1,0
2004/2/1 15:30,12.2,0,53,0,18.4,0,47.6,0,,2,11.1,0
2004/2/1 15:45,12.3,0,56,0,18.1,0,49,0,,2,11.2,0
2004/2/1 16:00,12.1,0,57,0,18.3,0,51.3,0,,2,11.2,0
2004/2/1 16:15,12.3,0,61,0,18.3,0,53.3,0,,2,11.2,0
2004/2/1 16:30,12,0,61,0,18.3,0,54,0,,2,11.2,0
2004/2/1 16:45,11.9,0,63,0,18.4,0,55.6,0,,2,11.3,0
2004/2/1 17:00,12,0,65,0,18.5,0,58.9,0,,2,11.3,0
2004/2/1 17:15,11.8,0,65,0,18.3,0,57.1,0,,2,11.4,0
2004/2/1 17:30,11.9,0,65,0,18.6,0,58.6,0,,2,11.4,0
2004/2/1 17:45,11.7,0,65,0,18.7,0,59.5,0,,2,11.4,0
2004/2/1 18:00,11.8,0,67,0,18.9,0,62.5,0,,2,11.5,0
2004/2/1 18:15,11.7,0,68,0,18.9,0,62.3,0,,2,11.5,0
2004/2/1 18:30,11.7,0,72,0,19,0,66.1,0,,2,10.1,0
2004/2/1 18:45,11.7,0,72,0,19.1,0,67.6,0,,2,10.1,0
2004/2/1 19:00,11.5,0,73,0,18.9,0,63.3,0,,2,10.2,0
2004/2/1 19:15,11.5,0,75,0,18.9,0,61.9,0,,2,10.3,0
2004/2/1 19:30,11.6,0,76,0,19.3,0,65.7,0,,2,10.4,0
2004/2/1 19:45,11.5,0,78,0,19.4,0,66.4,0,,2,10.4,0
2004/2/1 20:00,11.4,0,78,0,19.4,0,66.6,0,,2,10.5,0
2004/2/1 20:15,11.4,0,79,0,19.3,0,66.8,0,,2,10.8,0
2004/2/1 20:30,11.5,0,81,0,19.2,0,67.1,0,,2,10.3,0
2004/2/1 20:45,11.5,0,82,0,19.2,0,67.6,0,,2,10.3,0
2004/2/1 21:00,11.5,0,81,0,19.3,0,67.3,0,,2,10.4,0
2004/2/1 21:15,11.5,0,80,0,19.3,0,66.6,0,,2,10.3,0
2004/2/1 21:30,11.5,0,79,0,19.3,0,67.1,0,,2,10.4,0
2004/2/1 21:45,11.6,0,79,0,19.4,0,67.3,0,,2,10.4,0
2004/2/1 22:00,11.6,0,78,0,19.3,0,71.3,0,,2,10.4,0
2004/2/1 22:15,11.5,0,77,0,19.3,0,67.5,0,,2,10.4,0
2004/2/1 22:30,11.6,0,77,0,19.4,0,66.8,0,,2,10.5,0
2004/2/1 22:45,11.6,0,77,0,19.3,0,66.8,0,,2,10.6,0
2004/2/1 23:00,11.6,0,77,0,19.3,0,66.1,0,,2,10.6,0
2004/2/1 23:15,11.5,0,78,0,19.4,0,70.3,0,,2,10.7,0
2004/2/1 23:30,11.5,0,78,0,19.2,0,71.8,0,,2,10.8,0
2004/2/1 23:45,11.6,0,78,0,19.1,0,70.5,0,,2,10.8,0
2004/2/2 0:00,11.5,0,81,0,19.1,0,69.7,0,,2,10.9,0
2004/2/2 0:15,11.5,0,84,0,20.8,0,65.7,0,,2,11,0
2004/2/2 0:30,11.4,0,86,0,19.5,0,69,0,,2,11,0
2004/2/2 0:45,11.3,0,87,0,19.3,0,69.2,0,,2,11.1,0
2004/2/2 1:00,11.2,0,87,0,19.2,0,68.2,0,,2,11.2,0
2004/2/2 1:15,11.2,0,87,0,19.2,0,68.3,0,,2,11.3,0
2004/2/2 1:30,11.2,0,87,0,19.3,0,68.9,0,,2,11.3,0
2004/2/2 1:45,11.1,0,87,0,19.2,0,68.1,0,,2,11.7,0
2004/2/2 2:00,11.2,0,87,0,19.1,0,67.2,0,,2,11.4,0
2004/2/2 2:15,11.1,0,87,0,19,0,66.4,0,,2,11.4,0
2004/2/2 2:30,11.1,0,87,0,19,0,65.8,0,,2,11.5,0
2004/2/2 2:45,11.1,0,87,0,18.9,0,65.2,0,,2,11.5,0
2004/2/2 3:00,11,0,86,0,18.9,0,64.9,0,,2,11.6,0
2004/2/2 3:15,11.2,0,87,0,18.9,0,64.5,0,,2,11.6,0
2004/2/2 3:30,11.2,0,88,0,18.8,0,64.2,0,,2,11.7,0
2004/2/2 3:45,11.2,0,88,0,18.8,0,64,0,,2,11.8,0
2004/2/2 4:00,11.2,0,88,0,18.8,0,63.8,0,,2,11.8,0
2004/2/2 4:15,11.4,0,88,0,18.8,0,63.6,0,,2,11.9,0
2004/2/2 4:30,11.3,0,89,0,18.7,0,63.4,0,,2,11.9,0
2004/2/2 4:45,11.2,0,88,0,18.7,0,63.2,0,,2,12,0
2004/2/2 5:00,11.2,0,89,0,18.7,0,63.1,0,,2,12,0
2004/2/2 5:15,11.3,0,89,0,18.7,0,62.9,0,,2,12.8,0
2004/2/2 5:30,11.3,0,89,0,18.7,0,62.7,0,,2,12.7,0
2004/2/2 5:45,11.3,0,89,0,18.6,0,62.8,0,,2,12.7,0
2004/2/2 6:00,11.1,0,89,0,18.7,0,62.6,0,,2,12.7,0
2004/2/2 6:15,11.3,0,89,0,18.7,0,62.3,0,,2,12.8,0
2004/2/2 6:30,11.2,0,89,0,18.6,0,62.4,0,,2,12.8,0
2004/2/2 6:45,11.2,0,90,0,18.6,0,62.2,0,,2,12.8,0
2004/2/2 7:00,11.3,0,89,0,18.6,0,62.1,0,,2,12.9,0
2004/2/2 7:15,11.3,0,88,0,18.6,0,62,0,,2,12.9,0
2004/2/2 7:30,11.6,0,90,0,18.7,0,63.3,0,,2,11.2,0
2004/2/2 7:45,11.4,0,90,0,19.2,0,65.7,0,,2,10.6,0
2004/2/2 8:00,11.5,0,89,0,20.8,0,60.4,0,,2,10.7,0
2004/2/2 8:15,11.3,0,89,0,20.4,0,60.7,0,,2,10.5,0
2004/2/2 8:30,11,0,87,0,20.6,0,60.5,0,,2,10.6,0
2004/2/2 8:45,11.2,0,83,0,20.3,0,61.3,0,,2,10.6,0
2004/2/2 9:00,11.3,0,83,0,19.7,0,63.1,0,,2,10.7,0
2004/2/2 9:15,11.3,0,83,0,19.5,0,63.9,0,,2,10.8,0
2004/2/2 9:30,11.4,0,80,0,19.6,0,64.8,0,,2,10.9,0
2004/2/2 9:45,11.5,0,78,0,19.6,0,65,0,,2,10.9,0
2004/2/2 10:00,11.5,0,74,0,19.5,0,65.1,0,,2,11,0
2004/2/2 10:15,11.4,0,71,0,19.5,0,67.4,0,,2,11.1,0
2004/2/2 10:30,11.4,0,68,0,19.5,0,68.3,0,,2,11.1,0
2004/2/2 10:45,11.3,0,66,0,19.4,0,66.9,0,,2,11.2,0
2004/2/2 11:00,11.5,0,64,0,19.3,0,66.7,0,,2,11.2,0
2004/2/2 11:15,11.6,0,61,0,19.3,0,66.1,0,,2,11.3,0
2004/2/2 11:30,11.6,0,56,0,19.4,0,65.6,0,,2,11.4,0
2004/2/2 11:45,11.5,0,56,0,19.4,0,65.1,0,,2,11.4,0
2004/2/2 12:00,11.5,0,56,0,19.4,0,64.8,0,,2,11.5,0
2004/2/2 12:15,11.6,0,57,0,19.4,0,64.6,0,,2,11.5,0
2004/2/2 12:30,11.8,0,58,0,19.4,0,64.1,0,,2,11.6,0
2004/2/2 12:45,11.8,0,58,0,19.4,0,63.6,0,,2,11.7,0
2004/2/2 13:00,12.1,0,56,0,19.6,0,65.1,0,,2,12.2,0
2004/2/2 13:15,12.1,0,56,0,19.8,0,65.8,0,,2,12.2,0
2004/2/2 13:30,12.1,0,56,0,19.7,0,65.5,0,,2,12.3,0
2004/2/2 13:45,11.9,0,60,0,19.7,0,65.3,0,,2,12.3,0
2004/2/2 14:00,11.7,0,60,0,19.6,0,64.1,0,,2,12.1,0
2004/2/2 14:15,11.3,0,60,0,19.6,0,65,0,,2,12.2,0
2004/2/2 14:30,11.6,0,58,0,19.3,0,64.6,0,,2,12.2,0
2004/2/2 14:45,11.7,0,56,0,19,0,60,0,,2,11.9,0
2004/2/2 15:00,11.9,0,55,0,19.2,0,59,0,,2,11.8,0
2004/2/2 15:15,11.7,0,56,0,18.5,0,49.4,0,,2,11.9,0
2004/2/2 15:30,11.5,0,53,0,18.4,0,46.1,0,,2,11.9,0
2004/2/2 15:45,11.2,0,54,0,18.5,0,49.3,0,,2,11.9,0
2004/2/2 16:00,11.1,0,53,0,19,0,51.4,0,,2,12,0
2004/2/2 16:15,11,0,56,0,19.2,0,52.5,0,,2,12,0
2004/2/2 16:30,11,0,56,0,19.3,0,53.8,0,,2,11.8,0
2004/2/2 16:45,12.7,0,58,0,19.2,0,54.4,0,,2,11.8,0
2004/2/2 17:00,10.9,0,50,0,19.2,0,55,0,,2,11.8,0
2004/2/2 17:15,10.5,0,51,0,19.2,0,55.6,0,,2,11.9,0
2004/2/2 17:30,10.3,0,53,0,19.1,0,55.9,0,,2,11.9,0
2004/2/2 17:45,10,0,53,0,19.2,0,56.3,0,,2,11.9,0
2004/2/2 18:00,10,0,52,0,19.2,0,56.2,0,,2,12,0
2004/2/2 18:15,10,0,53,0,19.3,0,56.4,0,,2,11.2,0
2004/2/2 18:30,9.9,0,52,0,19.5,0,57.5,0,,2,11.3,0
2004/2/2 18:45,9.9,0,51,0,19.6,0,59,0,,2,11.3,0
2004/2/2 19:00,9.6,0,53,0,19.8,0,62.9,0,,2,11.4,0
2004/2/2 19:15,9.6,0,53,0,19.7,0,61.7,0,,2,11.4,0
2004/2/2 19:30,9.7,0,53,0,19.5,0,58,0,,2,11.4,0
2004/2/2 19:45,9.7,0,52,0,20.2,0,63.3,0,,2,11.1,0
2004/2/2 20:00,9.5,0,50,0,20.2,0,63.7,0,,2,11.2,0
2004/2/2 20:15,9.6,0,50,0,20.2,0,63.8,0,,2,11.2,0
2004/2/2 20:30,9.4,0,50,0,20.1,0,63.5,0,,2,11.3,0
2004/2/2 20:45,9.4,0,49,0,20.1,0,63.4,0,,2,11.3,0
2004/2/2 21:00,9.4,0,46,0,19.8,0,61.4,0,,2,11.4,0
2004/2/2 21:15,9.3,0,44,0,19.8,0,61.4,0,,2,11.4,0
2004/2/2 21:30,9.1,0,44,0,19.8,0,61.6,0,,2,11.5,0
2004/2/2 21:45,9.1,0,45,0,19.9,0,62.1,0,,2,11.5,0
2004/2/2 22:00,8.9,0,46,0,19.8,0,61,0,,2,11.6,0
2004/2/2 22:15,8.9,0,45,0,19.8,0,60.7,0,,2,11.6,0
2004/2/2 22:30,9,0,45,0,19.7,0,60.6,0,,2,11.7,0
2004/2/2 22:45,8.9,0,45,0,19.6,0,60.7,0,,2,11.7,0
2004/2/2 23:00,8.9,0,47,0,19.6,0,60.7,0,,2,11.8,0
2004/2/2 23:15,8.9,0,48,0,19.6,0,61.3,0,,2,11.8,0
2004/2/2 23:30,9,0,49,0,19.8,0,71.5,0,,2,11.9,0
2004/2/2 23:45,8.7,0,51,0,19.7,0,63.9,0,,2,11.9,0
2004/2/3 0:00,8.7,0,53,0,20,0,65.6,0,,2,11.5,0
2004/2/3 0:15,8.8,0,53,0,19.9,0,63.7,0,,2,11.5,0
2004/2/3 0:30,8.7,0,53,0,19.7,0,61.3,0,,2,11.6,0
2004/2/3 0:45,8.9,0,53,0,19.8,0,63.1,0,,2,11.6,0
2004/2/3 1:00,8.9,0,53,0,19.7,0,72.4,0,,2,11.5,0
2004/2/3 1:15,8.6,0,50,0,19.7,0,68.3,0,,2,11.5,0
2004/2/3 1:30,8.6,0,49,0,19.8,0,71.1,0,,2,11.6,0
2004/2/3 1:45,8.3,0,48,0,19.7,0,69.5,0,,2,11.6,0
2004/2/3 2:00,8.2,0,48,0,19.6,0,68.2,0,,2,11.7,0
2004/2/3 2:15,8.2,0,47,0,19.4,0,66.8,0,,2,11.7,0
2004/2/3 2:30,8,0,47,0,19.4,0,65.7,0,,2,11.8,0
2004/2/3 2:45,7.8,0,47,0,19.4,0,64.9,0,,2,11.8,0
2004/2/3 3:00,7.8,0,45,0,19.4,0,64,0,,2,11.9,0
2004/2/3 3:15,7.8,0,45,0,19.3,0,63.5,0,,2,11.9,0
2004/2/3 3:30,7.7,0,44,0,19.3,0,62.8,0,,2,12,0
2004/2/3 3:45,7.8,0,44,0,19.3,0,62.4,0,,2,12,0
2004/2/3 4:00,7.4,0,47,0,19.2,0,62.2,0,,2,12.1,0
2004/2/3 4:15,7.5,0,46,0,19.2,0,62,0,,2,12.1,0
2004/2/3 4:30,7.5,0,45,0,19.2,0,61.6,0,,2,12.2,0
2004/2/3 4:45,7.2,0,46,0,19.2,0,61.4,0,,2,12.2,0
2004/2/3 5:00,7.1,0,45,0,19.1,0,61.1,0,,2,12.3,0
2004/2/3 5:15,6.9,0,43,0,19.1,0,61,0,,2,12.3,0
2004/2/3 5:30,6.9,0,46,0,19.1,0,60.5,0,,2,12.4,0
2004/2/3 5:45,6.9,0,45,0,19.1,0,60.3,0,,2,12.4,0
2004/2/3 6:00,6.4,0,47,0,19,0,59.9,0,,2,12.5,0
2004/2/3 6:15,6.4,0,50,0,19,0,59.7,0,,2,12.5,0
2004/2/3 6:30,6.4,0,49,0,19,0,59.4,0,,2,12.6,0
2004/2/3 6:45,6.4,0,50,0,19,0,58.9,0,,2,12.6,0
2004/2/3 7:00,6.3,0,49,0,18.9,0,58.4,0,,2,12.6,0
2004/2/3 7:15,6.1,0,49,0,18.9,0,58.1,0,,2,12.7,0
2004/2/3 7:30,5.9,0,50,0,19.4,0,58.4,0,,2,11.4,0
2004/2/3 7:45,5.9,0,51,0,21.4,0,56.5,0,,2,10.9,0
2004/2/3 8:00,6.2,0,49,0,21,0,57,0,,2,11,0
2004/2/3 8:15,6.1,0,51,0,20.6,0,57.5,0,,2,11,0
2004/2/3 8:30,6.3,0,47,0,20.5,0,58,0,,2,11.1,0
2004/2/3 8:45,6.2,0,45,0,20.6,0,57.8,0,,2,11.1,0
2004/2/3 9:00,6.6,0,42,0,20.7,0,57.6,0,,2,11.2,0
2004/2/3 9:15,6.6,0,44,0,20.7,0,57.2,0,,2,11.4,0
2004/2/3 9:30,7,0,42,0,20.7,0,57.5,0,,2,11.4,0
2004/2/3 9:45,7.3,0,42,0,19.9,0,59.7,0,,2,11.5,0
2004/2/3 10:00,6.9,0,42,0,19.9,0,60.2,0,,2,11.5,0
2004/2/3 10:15,6.4,0,44,0,19.9,0,59.7,0,,2,11.5,0
2004/2/3 10:30,6.2,0,47,0,20.1,0,58.4,0,,2,11.6,0
2004/2/3 10:45,6.4,0,48,0,20,0,58.6,0,,2,11.6,0
2004/2/3 11:00,6.8,0,48,0,20.2,0,61.6,0,,2,11.7,0
2004/2/3 11:15,7.3,0,43,0,20,0,60.9,0,,2,11.6,0
2004/2/3 11:30,7,0,44,0,20.1,0,60.4,0,,2,11.6,0
2004/2/3 11:45,7,0,42,0,20.1,0,59.6,0,,2,11.7,0
2004/2/3 12:00,6.7,0,43,0,20.1,0,59.2,0,,2,11.7,0
2004/2/3 12:15,7,0,41,0,20.1,0,59.4,0,,2,11.8,0
2004/2/3 12:30,7,0,41,0,20.5,0,58,0,,2,11.8,0
2004/2/3 12:45,6.8,0,43,0,20.2,0,54,0,,2,11.8,0
2004/2/3 13:00,6.8,0,45,0,19.9,0,52.4,0,,2,11.9,0
2004/2/3 13:15,6.9,0,44,0,19.9,0,53.6,0,,2,11.9,0
2004/2/3 13:30,6.4,0,45,0,19.9,0,54.3,0,,2,11.9,0
2004/2/3 13:45,7,0,45,0,18.5,0,36.5,0,,2,12,0
2004/2/3 14:00,7.2,0,39,0,18.8,0,40.3,0,,2,12,0
2004/2/3 14:15,7.3,0,39,0,19.2,0,42.5,0,,2,11.4,0
2004/2/3 14:30,7.4,0,43,0,19.3,0,45.8,0,,2,11.4,0
2004/2/3 14:45,7.2,0,46,0,19.2,0,46.6,0,,2,11.5,0
2004/2/3 15:00,6.7,0,48,0,19.2,0,47.5,0,,2,11.5,0
2004/2/3 15:15,6.6,0,49,0,19.2,0,47.8,0,,2,11.6,0
2004/2/3 15:30,6.6,0,48,0,19.1,0,48.4,0,,2,11.6,0
2004/2/3 15:45,6.9,0,46,0,19.1,0,48.8,0,,2,11.6,0
2004/2/3 16:00,7.1,0,47,0,19.1,0,49.5,0,,2,11.7,0
2004/2/3 16:15,6.7,0,48,0,19,0,49.5,0,,2,11.9,0
2004/2/3 16:30,6.4,0,50,0,19,0,49.7,0,,2,11.9,0
2004/2/3 16:45,6.5,0,50,0,19,0,49.9,0,,2,11.9,0
2004/2/3 17:00,6.7,0,50,0,19,0,49.9,0,,2,11.7,0
2004/2/3 17:15,6.3,0,43,0,19,0,50.1,0,,2,11.7,0
2004/2/3 17:30,6.1,0,45,0,19.1,0,50.5,0,,2,11.8,0
2004/2/3 17:45,5.8,0,49,0,19.1,0,50.9,0,,2,11.8,0
2004/2/3 18:00,6.1,0,51,0,19.2,0,51.3,0,,2,11.8,0
2004/2/3 18:15,5.6,0,50,0,19.3,0,51.7,0,,2,11.9,0
2004/2/3 18:30,5.8,0,48,0,19.4,0,51.7,0,,2,11.3,0
2004/2/3 18:45,5.7,0,44,0,19.6,0,55,0,,2,11.4,0
2004/2/3 19:00,5.4,0,43,0,19.6,0,53.7,0,,2,11.4,0
2004/2/3 19:15,5.4,0,41,0,19.7,0,53.9,0,,2,11.4,0
2004/2/3 19:30,5.7,0,39,0,19.7,0,53.3,0,,2,11.5,0
2004/2/3 19:45,5.9,0,37,0,19.9,0,55.1,0,,2,11.5,0
2004/2/3 20:00,5.9,0,37,0,19.8,0,55.3,0,,2,11.6,0
2004/2/3 20:15,5.8,0,38,0,19.8,0,55.6,0,,2,11.6,0
2004/2/3 20:30,6,0,39,0,19.8,0,55.5,0,,2,11.6,0
2004/2/3 20:45,6.1,0,39,0,19.8,0,55.9,0,,2,11.7,0
2004/2/3 21:00,6.1,0,40,0,19.7,0,55.6,0,,2,11.7,0
2004/2/3 21:15,6,0,39,0,19.7,0,55.7,0,,2,11.8,0
2004/2/3 21:30,6,0,37,0,19.7,0,54.2,0,,2,11.8,0
2004/2/3 21:45,6.1,0,38,0,19.9,0,54.7,0,,2,11.8,0
2004/2/3 22:00,6.3,0,39,0,20.1,0,56.7,0,,2,11.9,0
2004/2/3 22:15,6.1,0,39,0,20.2,0,60.5,0,,2,11.9,0
2004/2/3 22:30,6.3,0,39,0,20.7,0,61.9,0,,2,11.9,0
2004/2/3 22:45,6.2,0,39,0,20.7,0,59.5,0,,2,12,0
2004/2/3 23:00,6.3,0,38,0,20.6,0,60,0,,2,12,0
2004/2/3 23:15,6.1,0,37,0,20.6,0,59.9,0,,2,12.1,0
2004/2/3 23:30,5.8,0,39,0,20.5,0,59.6,0,,2,12.1,0
2004/2/3 23:45,5.8,0,36,0,20.6,0,60.6,0,,2,12.1,0
2004/2/4 0:00,6,0,40,0,20.4,0,60.4,0,,2,12.2,0
2004/2/4 0:15,6.1,0,41,0,20.3,0,59.3,0,,2,11.6,0
2004/2/4 0:30,6.1,0,41,0,20.3,0,59.7,0,,2,11.7,0
2004/2/4 0:45,5.6,0,45,0,20.3,0,60.1,0,,2,11.8,0
2004/2/4 1:00,5.8,0,43,0,20.4,0,59.5,0,,2,11.8,0
2004/2/4 1:15,5.4,0,45,0,20.2,0,59,0,,2,11.5,0
2004/2/4 1:30,5.9,0,41,0,20.1,0,58.8,0,,2,11.6,0
2004/2/4 1:45,5.7,0,39,0,20,0,58.6,0,,2,11.6,0
2004/2/4 2:00,5.6,0,41,0,20.3,0,68,0,,2,11.7,0
2004/2/4 2:15,5.6,0,39,0,20.2,0,65.6,0,,2,11.7,0
2004/2/4 2:30,5.7,0,42,0,20,0,62.7,0,,2,11.8,0
2004/2/4 2:45,5.5,0,43,0,19.9,0,60.9,0,,2,11.8,0
2004/2/4 3:00,5.5,0,42,0,19.9,0,59.8,0,,2,11.9,0
2004/2/4 3:15,5.7,0,42,0,19.8,0,59,0,,2,11.9,0
2004/2/4 3:30,5.3,0,40,0,19.8,0,58.4,0,,2,12,0
2004/2/4 3:45,5.6,0,41,0,19.7,0,58.3,0,,2,12,0
2004/2/4 4:00,5.4,0,46,0,19.7,0,58,0,,2,12.1,0
2004/2/4 4:15,5.3,0,49,0,19.7,0,57.9,0,,2,12.1,0
2004/2/4 4:30,5.1,0,50,0,19.6,0,57.6,0,,2,12.2,0
2004/2/4 4:45,5.3,0,48,0,19.6,0,57.2,0,,2,12.2,0
2004/2/4 5:00,5.2,0,50,0,19.5,0,56.8,0,,2,12.3,0
2004/2/4 5:15,5.4,0,48,0,19.5,0,56.4,0,,2,12.3,0
2004/2/4 5:30,5.3,0,52,0,19.4,0,55.9,0,,2,12.3,0
2004/2/4 5:45,5.6,0,48,0,19.4,0,55.6,0,,2,12.4,0
2004/2/4 6:00,5.4,0,48,0,19.4,0,55.4,0,,2,12.4,0
2004/2/4 6:15,5.3,0,51,0,19.4,0,55.3,0,,2,12.5,0
2004/2/4 6:30,5.2,0,55,0,19.3,0,55,0,,2,12.5,0
2004/2/4 6:45,4.9,0,60,0,19.3,0,54.9,0,,2,12.6,0
2004/2/4 7:00,5.2,0,57,0,19.3,0,54.7,0,,2,12.6,0
2004/2/4 7:15,5.7,0,49,0,19.3,0,54.5,0,,2,12.6,0
2004/2/4 7:30,5.4,0,56,0,19.2,0,53.8,0,,2,12.7,0
2004/2/4 7:45,5.4,0,54,0,20,0,55.8,0,,2,11.1,0
2004/2/4 8:00,6.3,0,56,0,19.8,0,56.2,0,,2,11.1,0
2004/2/4 8:15,6.2,0,51,0,19.6,0,56.5,0,,2,11.2,0
2004/2/4 8:30,6.2,0,50,0,19.4,0,56.5,0,,2,11.2,0
2004/2/4 8:45,6.1,0,51,0,19.4,0,56.9,0,,2,10.8,0
2004/2/4 9:00,6.2,0,50,0,19.5,0,56.2,0,,2,10.9,0
2004/2/4 9:15,6.7,0,45,0,18.8,0,48.1,0,,2,10.8,0
2004/2/4 9:30,5.9,0,55,0,19.2,0,51.9,0,,2,10.8,0
2004/2/4 9:45,6.1,0,50,0,19.2,0,52.8,0,,2,10.9,0
2004/2/4 10:00,6.1,0,54,0,19.1,0,53.9,0,,2,10.9,0
2004/2/4 10:15,6.1,0,58,0,19.1,0,54,0,,2,11,0
2004/2/4 10:30,5.8,0,55,0,19.1,0,54,0,,2,11,0
2004/2/4 10:45,6.2,0,47,0,19.3,0,54.3,0,,2,11.1,0
2004/2/4 11:00,5.7,0,50,0,19.4,0,54.6,0,,2,11.1,0
2004/2/4 11:15,5.9,0,49,0,19.2,0,54,0,,2,11.2,0
2004/2/4 11:30,6.1,0,49,0,19.1,0,54,0,,2,11.2,0
2004/2/4 11:45,6.4,0,46,0,19.1,0,53.9,0,,2,11.3,0
2004/2/4 12:00,5.9,0,54,0,19,0,53.6,0,,2,11.3,0
2004/2/4 12:15,6.4,0,49,0,19,0,53.5,0,,2,11.4,0
2004/2/4 12:30,6.4,0,46,0,19,0,53.1,0,,2,11.4,0
2004/2/4 12:45,6.3,0,46,0,19,0,53,0,,2,11.4,0
2004/2/4 13:00,6,0,49,0,19,0,52.6,0,,2,11.5,0
2004/2/4 13:15,6.1,0,50,0,18.9,0,52.7,0,,2,11.5,0
2004/2/4 13:30,6,0,53,0,18.9,0,53.5,0,,2,11.6,0
2004/2/4 13:45,5.8,0,53,0,19,0,54.2,0,,2,11.6,0
2004/2/4 14:00,6.2,0,51,0,19,0,53.8,0,,2,11.7,0
2004/2/4 14:15,6.6,0,50,0,19,0,53.9,0,,2,11.7,0
2004/2/4 14:30,6.1,0,53,0,18.9,0,53.4,0,,2,11.7,0
2004/2/4 14:45,7,0,55,0,19,0,54.3,0,,2,11.8,0
2004/2/4 15:00,6.7,0,44,0,19,0,51.8,0,,2,11.8,0
2004/2/4 15:15,6.2,0,45,0,18.6,0,43.4,0,,2,11.9,0
2004/2/4 15:30,6.1,0,49,0,17.9,0,36.8,0,,2,11.9,0
2004/2/4 15:45,6.1,0,54,0,18.4,0,41.3,0,,2,12,0
2004/2/4 16:00,6.2,0,53,0,18.7,0,44,0,,2,12,0
2004/2/4 16:15,6.3,0,51,0,18.9,0,45.8,0,,2,12,0
2004/2/4 16:30,6.4,0,55,0,19,0,47.1,0,,2,11.8,0
2004/2/4 16:45,6.1,0,54,0,19,0,48,0,,2,11.5,0
2004/2/4 17:00,6.1,0,50,0,19,0,48.6,0,,2,11.5,0
2004/2/4 17:15,6.1,0,50,0,19,0,49.1,0,,2,11.5,0
2004/2/4 17:30,6.1,0,51,0,19.1,0,49.5,0,,2,11.6,0
2004/2/4 17:45,6.1,0,49,0,19.1,0,49.8,0,,2,11.6,0
2004/2/4 18:00,6.4,0,52,0,19.1,0,50.2,0,,2,11.6,0
2004/2/4 18:15,5.9,0,49,0,19,0,49.7,0,,2,11.5,0
2004/2/4 18:30,5.9,0,53,0,19.2,0,51,0,,2,11.5,0
2004/2/4 18:45,5.8,0,53,0,19.5,0,54.4,0,,2,11.6,0
2004/2/4 19:00,5.8,0,53,0,19.4,0,52.9,0,,2,11.6,0
2004/2/4 19:15,5.9,0,48,0,19.3,0,49.8,0,,2,11.6,0
2004/2/4 19:30,5.9,0,45,0,19.2,0,48.1,0,,2,11.7,0
2004/2/4 19:45,6.1,0,43,0,19.2,0,46.9,0,,2,11.7,0
2004/2/4 20:00,6.1,0,43,0,19.5,0,48.6,0,,2,11.7,0
2004/2/4 20:15,6.2,0,43,0,19.5,0,48.8,0,,2,11.3,0
2004/2/4 20:30,6.1,0,44,0,19.5,0,48.1,0,,2,11.3,0
2004/2/4 20:45,6.2,0,43,0,19.4,0,47.7,0,,2,11.4,0
2004/2/4 21:00,6.4,0,42,0,19.4,0,48.1,0,,2,11.4,0
2004/2/4 21:15,6.4,0,40,0,19.4,0,49.2,0,,2,11.5,0
2004/2/4 21:30,6.4,0,41,0,19.5,0,51,0,,2,11.5,0
2004/2/4 21:45,6.4,0,41,0,19.6,0,52,0,,2,11.5,0
2004/2/4 22:00,6.5,0,41,0,19.7,0,53.3,0,,2,11.6,0
2004/2/4 22:15,6.5,0,47,0,19.8,0,54.4,0,,2,11.6,0
2004/2/4 22:30,6.2,0,50,0,19.8,0,55.3,0,,2,11.7,0
2004/2/4 22:45,6.6,0,51,0,19.9,0,55.6,0,,2,11.7,0
2004/2/4 23:00,6.4,0,46,0,19.7,0,51.8,0,,2,11.7,0
2004/2/4 23:15,6.6,0,45,0,19.8,0,54.9,0,,2,11.8,0
2004/2/4 23:30,6.5,0,49,0,19.9,0,58.2,0,,2,11,0
2004/2/4 23:45,5.7,0,54,0,19.8,0,57.4,0,,2,11.1,0
2004/2/5 0:00,5.6,0,55,0,19.8,0,55,0,,2,11.1,0
2004/2/5 0:15,5.4,0,58,0,20.1,0,54.4,0,,2,11.2,0
2004/2/5 0:30,5.4,0,57,0,20,0,52.8,0,,2,11.2,0
2004/2/5 0:45,5.7,0,55,0,20.3,0,54.4,0,,2,11.3,0
2004/2/5 1:00,5.7,0,55,0,20.3,0,56.3,0,,2,11.4,0
2004/2/5 1:15,5.8,0,61,0,20.3,0,56.3,0,,2,11.4,0
2004/2/5 1:30,5.9,0,64,0,20.1,0,58.5,0,,2,11.6,0
2004/2/5 1:45,5.6,0,69,0,20,0,56.9,0,,2,11.5,0
2004/2/5 2:00,5.3,0,72,0,19.8,0,55.9,0,,2,11.5,0
2004/2/5 2:15,5.2,0,75,0,19.7,0,55.2,0,,2,11.6,0
2004/2/5 2:30,5.3,0,76,0,19.6,0,54.7,0,,2,11.6,0
2004/2/5 2:45,5.1,0,76,0,19.6,0,54.3,0,,2,11.7,0
2004/2/5 3:00,5.4,0,75,0,19.4,0,54.4,0,,2,11.7,0
2004/2/5 3:15,5.1,0,76,0,19.3,0,54.1,0,,2,11.8,0
2004/2/5 3:30,5,0,79,0,19.3,0,53.9,0,,2,11.8,0
2004/2/5 3:45,5.4,0,81,0,19.3,0,53.7,0,,2,11.9,0
2004/2/5 4:00,5.7,0,77,0,19.2,0,53.5,0,,2,11.9,0
2004/2/5 4:15,5.9,0,62,0,19.2,0,53.3,0,,2,11.9,0
2004/2/5 4:30,6.2,0,47,0,19.1,0,53.2,0,,2,12,0
2004/2/5 4:45,6.4,0,44,0,19.2,0,53,0,,2,11.6,0
2004/2/5 5:00,6.4,0,43,0,19.1,0,52.7,0,,2,11.7,0
2004/2/5 5:15,6.4,0,44,0,19.1,0,52.4,0,,2,11.7,0
2004/2/5 5:30,6.3,0,44,0,19.1,0,52.3,0,,2,11.8,0
2004/2/5 5:45,6.3,0,44,0,19.1,0,52.1,0,,2,11.8,0
2004/2/5 6:00,6.3,0,44,0,19,0,51.8,0,,2,11.8,0
2004/2/5 6:15,6.2,0,44,0,19,0,51.8,0,,2,11.9,0
2004/2/5 6:30,6.1,0,44,0,19,0,52,0,,2,11.9,0
2004/2/5 6:45,6.1,0,45,0,19.1,0,54.7,0,,2,12,0
2004/2/5 7:00,5.9,0,46,0,19.5,0,60.3,0,,2,12.1,0
2004/2/5 7:15,5.7,0,42,0,19.6,0,62.9,0,,2,12.1,0
2004/2/5 7:30,5.7,0,41,0,19.4,0,56.7,0,,2,12.2,0
2004/2/5 7:45,5.7,0,40,0,19.6,0,57.4,0,,2,10.9,0
2004/2/5 8:00,6.1,0,43,0,19.4,0,52.7,0,,2,10.5,0
2004/2/5 8:15,6,0,42,0,19.4,0,52.8,0,,2,10.6,0
2004/2/5 8:30,5.9,0,42,0,19.3,0,53.3,0,,2,10.6,0
2004/2/5 8:45,5.7,0,43,0,19.3,0,53.6,0,,2,10.7,0
2004/2/5 9:00,5.5,0,42,0,19.2,0,53.9,0,,2,10.8,0
2004/2/5 9:15,5.4,0,44,0,19.2,0,54.2,0,,2,10.8,0
2004/2/5 9:30,5,0,52,0,19.3,0,54.2,0,,2,11,0
2004/2/5 9:45,5.4,0,46,0,19.4,0,54.2,0,,2,11,0
2004/2/5 10:00,5.2,0,42,0,19.4,0,54.5,0,,2,11.1,0
2004/2/5 10:15,5.2,0,44,0,19.5,0,54.7,0,,2,11.1,0
2004/2/5 10:30,4.8,0,47,0,19.6,0,55,0,,2,11.2,0
2004/2/5 10:45,5.1,0,40,0,19.7,0,54.6,0,,2,11.2,0
2004/2/5 11:00,4.2,0,66,0,19.6,0,54.6,0,,2,11.3,0
2004/2/5 11:15,4.7,0,47,0,19.5,0,54.8,0,,2,11.3,0
2004/2/5 11:30,4.8,0,47,0,19.7,0,56.3,0,,2,11.4,0
2004/2/5 11:45,4.4,0,54,0,19.8,0,56,0,,2,11.4,0
2004/2/5 12:00,4.8,0,47,0,19.9,0,61.4,0,,2,11.5,0
2004/2/5 12:15,4.8,0,43,0,19.8,0,59.3,0,,2,11.5,0
2004/2/5 12:30,4.4,0,43,0,19.7,0,58.9,0,,2,11.6,0
2004/2/5 12:45,4.5,0,39,0,19.6,0,58.6,0,,2,11.6,0
2004/2/5 13:00,4.8,0,37,0,19.7,0,58.7,0,,2,11.5,0
2004/2/5 13:15,5,0,38,0,19.8,0,58.7,0,,2,11.5,0
2004/2/5 13:30,5,0,38,0,19.6,0,56.8,0,,2,11.6,0
2004/2/5 13:45,4.7,0,40,0,19.5,0,56.7,0,,2,11.6,0
2004/2/5 14:00,4.5,0,41,0,19.4,0,56.3,0,,2,11.6,0
2004/2/5 14:15,4.6,0,36,0,19.4,0,56,0,,2,11.7,0
2004/2/5 14:30,4.6,0,37,0,19.2,0,55.8,0,,2,11.7,0
2004/2/5 14:45,4.8,0,43,0,19.2,0,55.6,0,,2,11.8,0
2004/2/5 15:00,4.5,0,39,0,19,0,55.4,0,,2,11.8,0
2004/2/5 15:15,4.3,0,44,0,19,0,55.3,0,,2,11.8,0
2004/2/5 15:30,4.9,0,45,0,18.9,0,55.2,0,,2,11.9,0
2004/2/5 15:45,5.3,0,40,0,18.9,0,54.5,0,,2,11.9,0
2004/2/5 16:00,4.6,0,39,0,19,0,53.8,0,,2,11.9,0
2004/2/5 16:15,4.6,0,52,0,18.8,0,54.1,0,,2,12,0
2004/2/5 16:30,4.9,0,40,0,18.8,0,53.9,0,,2,12,0
2004/2/5 16:45,4.7,0,39,0,18.8,0,53.9,0,,2,12,0
2004/2/5 17:00,4.8,0,40,0,19.1,0,54.1,0,,2,11.7,0
2004/2/5 17:15,4.4,0,49,0,19.1,0,54.5,0,,2,11.7,0
2004/2/5 17:30,4.7,0,51,0,19.1,0,55,0,,2,11.8,0
2004/2/5 17:45,4.4,0,46,0,19.1,0,55,0,,2,11.8,0
2004/2/5 18:00,4.4,0,44,0,19.1,0,55.2,0,,2,11.8,0
2004/2/5 18:15,4.2,0,47,0,18.9,0,50.1,0,,2,11.8,0
2004/2/5 18:30,4,0,58,0,19.1,0,52.1,0,,2,11.2,0
2004/2/5 18:45,3.6,0,59,0,19.2,0,52.8,0,,2,11.2,0
2004/2/5 19:00,3.6,0,57,0,19.2,0,53.3,0,,2,11.3,0
2004/2/5 19:15,4.1,0,53,0,19.3,0,55.8,0,,2,11,0
2004/2/5 19:30,4.3,0,46,0,19.7,0,59.6,0,,2,11,0
2004/2/5 19:45,4.1,0,45,0,19.6,0,59.1,0,,2,11,0
2004/2/5 20:00,4,0,52,0,19.5,0,58.5,0,,2,11.1,0
2004/2/5 20:15,4.3,0,40,0,19.5,0,58.6,0,,2,10.8,0
2004/2/5 20:30,3.7,0,57,0,19.5,0,58.3,0,,2,10.8,0
2004/2/5 20:45,4.1,0,46,0,19.4,0,57.3,0,,2,10.5,0
2004/2/5 21:00,4.4,0,41,0,19.3,0,56.9,0,,2,10.6,0
2004/2/5 21:15,4.6,0,41,0,19.2,0,56.8,0,,2,10.3,0
2004/2/5 21:30,4.4,0,50,0,19.3,0,57.5,0,,2,10.4,0
2004/2/5 21:45,4.6,0,45,0,19.4,0,59.8,0,,2,10.5,0
2004/2/5 22:00,4.6,0,43,0,19.6,0,61.8,0,,2,10.5,0
2004/2/5 22:15,4.5,0,46,0,19.6,0,60.4,0,,2,10.5,0
2004/2/5 22:30,4.6,0,43,0,19.5,0,59.6,0,,2,10.6,0
2004/2/5 22:45,4.9,0,39,0,19.5,0,58.7,0,,2,10.7,0
2004/2/5 23:00,4.8,0,39,0,19.5,0,59,0,,2,10.7,0